Location: Dumpton Point
(51.3500°N, 1.4433°E)
Time: 04:56:05
(UTC+00:00)

Altair - Pass Details

Date: 01 October 2022
Orbit: 1501 x 1682 km, 47.2° (Epoch: 26 November)

Event Time Altitude Azimuth Distance (km) Brightness Sun altitude
Rises 03:20:33 0° 180° (S) 4,755 9.8 -24.1°
Reaches altitude 10° 03:25:06 10° 161° (SSE) 3,811 9.5 -23.5°
Maximum altitude 03:30:34 17° 126° (SE) 3,345 9.6 -22.7°
Drops below altitude 10° 03:36:08 10° 91° (E) 3,897 10.5 -21.9°
Sets 03:40:50 0° 73° (ENE) 4,914 11.7 -21.2°
